Time,TemperatureF,DewpointF,PressureIn,WindDirection,WindDirectionDegrees,WindSpeedMPH,WindSpeedGustMPH,Humidity,HourlyPrecipIn,Conditions,Clouds,dailyrainin,SoftwareType,DateUTC
2013-07-09 00:01:00,78.5,17.4,29.42,North,0,0.0,0.0,1,0.00,,,0.00,WUHU216HW,2013-07-09 04:01:00,
2013-07-09 00:04:00,78.5,17.4,29.42,North,0,0.0,0.0,1,0.00,,,0.00,WUHU216HW,2013-07-09 04:04:00,
2013-07-09 00:09:00,78.7,17.6,29.42,North,0,0.0,0.0,1,0.00,,,0.00,WUHU216HW,2013-07-09 04:09:00,
2013-07-09 00:14:00,78.8,17.6,29.42,North,0,0.0,0.0,1,0.00,,,0.00,WUHU216HW,2013-07-09 04:14:00,
2013-07-09 00:19:00,78.8,17.6,29.42,North,0,0.0,0.0,1,0.00,,,0.00,WUHU216HW,2013-07-09 04:19:00,
2013-07-09 00:24:00,78.8,17.6,29.42,North,0,0.0,0.0,1,0.00,,,0.00,WUHU216HW,2013-07-09 04:24:00,
2013-07-09 00:29:00,78.8,17.6,29.42,North,0,0.0,0.0,1,0.00,,,0.00,WUHU216HW,2013-07-09 04:29:00,
2013-07-09 00:34:00,78.8,17.6,29.42,North,0,0.0,0.0,1,0.00,,,0.00,WUHU216HW,2013-07-09 04:34:00,
2013-07-09 00:39:00,78.8,17.6,29.42,North,0,0.0,0.0,1,0.00,,,0.00,WUHU216HW,2013-07-09 04:39:00,
2013-07-09 00:45:00,78.7,17.6,29.42,North,0,0.0,0.0,1,0.00,,,0.00,WUHU216HW,2013-07-09 04:45:00,
2013-07-09 00:50:00,78.7,17.6,29.42,North,0,0.0,0.0,1,0.00,,,0.00,WUHU216HW,2013-07-09 04:50:00,
2013-07-09 00:55:00,78.7,17.6,29.42,North,0,0.0,0.0,1,0.00,,,0.00,WUHU216HW,2013-07-09 04:55:00,
2013-07-09 01:00:00,78.7,17.6,29.42,North,0,0.0,0.0,1,0.00,,,0.00,WUHU216HW,2013-07-09 05:00:00,
2013-07-09 01:05:00,78.7,17.6,29.42,North,0,0.0,0.0,1,0.00,,,0.00,WUHU216HW,2013-07-09 05:05:00,
2013-07-09 01:10:00,78.5,17.4,29.41,North,0,0.0,0.0,1,0.00,,,0.00,WUHU216HW,2013-07-09 05:10:00,
2013-07-09 01:15:00,78.3,17.3,29.41,North,0,0.0,0.0,1,0.00,,,0.00,WUHU216HW,2013-07-09 05:15:00,
2013-07-09 01:20:00,78.1,17.1,29.41,North,0,0.0,0.0,1,0.00,,,0.00,WUHU216HW,2013-07-09 05:20:00,
2013-07-09 01:25:00,77.9,17.0,29.41,North,0,0.0,0.0,1,0.00,,,0.00,WUHU216HW,2013-07-09 05:25:00,
2013-07-09 01:30:00,77.8,16.9,29.41,North,0,0.0,0.0,1,0.00,,,0.00,WUHU216HW,2013-07-09 05:30:00,
2013-07-09 01:35:00,77.6,16.7,29.41,North,0,0.0,0.0,1,0.00,,,0.00,WUHU216HW,2013-07-09 05:35:00,
2013-07-09 01:40:00,77.4,16.7,29.41,North,0,0.0,0.0,1,0.00,,,0.00,WUHU216HW,2013-07-09 05:40:00,
2013-07-09 01:45:00,77.4,16.7,29.41,North,0,0.0,0.0,1,0.00,,,0.00,WUHU216HW,2013-07-09 05:45:00,
2013-07-09 01:50:00,77.6,16.7,29.40,North,0,0.0,0.0,1,0.00,,,0.00,WUHU216HW,2013-07-09 05:50:00,
2013-07-09 01:55:00,77.6,16.7,29.40,North,0,0.0,0.0,1,0.00,,,0.00,WUHU216HW,2013-07-09 05:55:00,
2013-07-09 02:00:00,77.4,16.7,29.40,North,0,0.0,0.0,1,0.00,,,0.00,WUHU216HW,2013-07-09 06:00:00,
2013-07-09 02:05:00,77.4,16.7,29.40,North,0,0.0,0.0,1,0.00,,,0.00,WUHU216HW,2013-07-09 06:05:00,
2013-07-09 02:11:00,77.4,16.7,29.40,North,0,0.0,0.0,1,0.00,,,0.00,WUHU216HW,2013-07-09 06:11:00,
2013-07-09 02:16:00,77.2,16.5,29.40,North,0,0.0,0.0,1,0.00,,,0.00,WUHU216HW,2013-07-09 06:16:00,
2013-07-09 02:21:00,77.0,16.4,29.40,North,0,0.0,0.0,1,0.00,,,0.00,WUHU216HW,2013-07-09 06:21:00,
2013-07-09 02:26:00,77.0,16.4,29.40,North,0,0.0,0.0,1,0.00,,,0.00,WUHU216HW,2013-07-09 06:26:00,
2013-07-09 02:31:00,76.9,16.2,29.40,North,0,0.0,0.0,1,0.00,,,0.00,WUHU216HW,2013-07-09 06:31:00,
2013-07-09 02:36:00,76.7,16.1,29.40,North,0,0.0,0.0,1,0.00,,,0.00,WUHU216HW,2013-07-09 06:36:00,
2013-07-09 02:41:00,76.7,16.1,29.40,North,0,0.0,0.0,1,0.00,,,0.00,WUHU216HW,2013-07-09 06:41:00,
2013-07-09 02:46:00,76.7,16.1,29.40,North,0,0.0,0.0,1,0.00,,,0.00,WUHU216HW,2013-07-09 06:46:00,
2013-07-09 02:51:00,76.7,16.1,29.40,North,0,0.0,0.0,1,0.00,,,0.00,WUHU216HW,2013-07-09 06:51:00,
2013-07-09 02:56:00,76.7,16.1,29.40,North,0,0.0,0.0,1,0.00,,,0.00,WUHU216HW,2013-07-09 06:56:00,
2013-07-09 03:01:00,76.5,15.9,29.40,North,0,0.0,0.0,1,0.00,,,0.00,WUHU216HW,2013-07-09 07:01:00,
2013-07-09 03:06:00,76.3,15.9,29.40,North,0,0.0,0.0,1,0.00,,,0.00,WUHU216HW,2013-07-09 07:06:00,
2013-07-09 03:11:00,76.3,15.9,29.39,North,0,0.0,0.0,1,0.00,,,0.00,WUHU216HW,2013-07-09 07:11:00,
2013-07-09 03:16:00,76.3,15.9,29.40,North,0,0.0,0.0,1,0.00,,,0.00,WUHU216HW,2013-07-09 07:16:00,
2013-07-09 03:21:00,76.3,15.9,29.40,North,0,0.0,0.0,1,0.00,,,0.00,WUHU216HW,2013-07-09 07:21:00,
2013-07-09 03:26:00,76.3,15.9,29.40,North,0,0.0,0.0,1,0.00,,,0.00,WUHU216HW,2013-07-09 07:26:00,
2013-07-09 03:31:00,76.3,15.9,29.40,North,0,0.0,0.0,1,0.00,,,0.00,WUHU216HW,2013-07-09 07:31:00,
2013-07-09 03:36:00,76.3,15.9,29.40,North,0,0.0,0.0,1,0.00,,,0.00,WUHU216HW,2013-07-09 07:36:00,
2013-07-09 03:41:00,76.1,15.7,29.40,North,0,0.0,0.0,1,0.00,,,0.00,WUHU216HW,2013-07-09 07:41:00,
2013-07-09 03:46:00,76.1,15.7,29.40,North,0,0.0,0.0,1,0.00,,,0.00,WUHU216HW,2013-07-09 07:46:00,
2013-07-09 03:52:00,76.1,15.7,29.40,North,0,0.0,0.0,1,0.00,,,0.00,WUHU216HW,2013-07-09 07:52:00,
2013-07-09 03:57:00,76.1,15.7,29.40,North,0,0.0,0.0,1,0.00,,,0.00,WUHU216HW,2013-07-09 07:57:00,
2013-07-09 04:02:00,76.1,15.7,29.41,North,0,0.0,0.0,1,0.00,,,0.00,WUHU216HW,2013-07-09 08:02:00,
2013-07-09 04:08:00,76.3,15.9,29.41,North,0,0.0,0.0,1,0.00,,,0.00,WUHU216HW,2013-07-09 08:08:00,
2013-07-09 04:13:00,76.3,15.9,29.41,North,0,0.0,0.0,1,0.00,,,0.00,WUHU216HW,2013-07-09 08:13:00,
2013-07-09 04:18:00,76.3,15.9,29.41,North,0,0.0,0.0,1,0.00,,,0.00,WUHU216HW,2013-07-09 08:18:00,
2013-07-09 04:23:00,76.3,15.9,29.41,North,0,0.0,0.0,1,0.00,,,0.00,WUHU216HW,2013-07-09 08:23:00,
2013-07-09 04:28:00,76.5,15.9,29.41,North,0,0.0,0.0,1,0.00,,,0.00,WUHU216HW,2013-07-09 08:28:00,
2013-07-09 04:33:00,76.3,15.9,29.41,North,0,0.0,0.0,1,0.00,,,0.00,WUHU216HW,2013-07-09 08:33:00,
2013-07-09 04:38:00,76.3,15.9,29.41,North,0,0.0,0.0,1,0.00,,,0.00,WUHU216HW,2013-07-09 08:38:00,
2013-07-09 04:43:00,76.3,15.9,29.41,North,0,0.0,0.0,1,0.00,,,0.00,WUHU216HW,2013-07-09 08:43:00,
2013-07-09 04:48:00,76.3,15.9,29.41,North,0,0.0,0.0,1,0.00,,,0.00,WUHU216HW,2013-07-09 08:48:00,
2013-07-09 04:53:00,76.3,15.9,29.41,North,0,0.0,0.0,1,0.00,,,0.00,WUHU216HW,2013-07-09 08:53:00,
2013-07-09 04:58:00,76.3,15.9,29.40,North,0,0.0,0.0,1,0.00,,,0.00,WUHU216HW,2013-07-09 08:58:00,
2013-07-09 05:03:00,76.1,15.7,29.40,North,0,0.0,0.0,1,0.00,,,0.00,WUHU216HW,2013-07-09 09:03:00,
2013-07-09 05:08:00,76.1,15.7,29.40,North,0,0.0,0.0,1,0.00,,,0.00,WUHU216HW,2013-07-09 09:08:00,
2013-07-09 05:13:00,76.1,15.7,29.40,North,0,0.0,0.0,1,0.00,,,0.00,WUHU216HW,2013-07-09 09:13:00,
2013-07-09 05:18:00,76.0,15.5,29.40,North,0,0.0,0.0,1,0.00,,,0.00,WUHU216HW,2013-07-09 09:18:00,
2013-07-09 05:23:00,75.8,15.4,29.40,North,0,0.0,0.0,1,0.00,,,0.00,WUHU216HW,2013-07-09 09:23:00,
2013-07-09 05:28:00,75.8,15.4,29.40,North,0,0.0,0.0,1,0.00,,,0.00,WUHU216HW,2013-07-09 09:28:00,
2013-07-09 05:33:00,75.6,15.2,29.41,North,0,0.0,0.0,1,0.00,,,0.00,WUHU216HW,2013-07-09 09:33:00,
2013-07-09 05:38:00,75.6,15.2,29.41,North,0,0.0,0.0,1,0.00,,,0.00,WUHU216HW,2013-07-09 09:38:00,
2013-07-09 05:43:00,75.4,15.1,29.41,North,0,0.0,0.0,1,0.00,,,0.00,WUHU216HW,2013-07-09 09:43:00,
2013-07-09 05:48:00,75.4,15.1,29.41,North,0,0.0,0.0,1,0.00,,,0.00,WUHU216HW,2013-07-09 09:48:00,
2013-07-09 05:53:00,75.4,15.1,29.41,North,0,0.0,0.0,1,0.00,,,0.00,WUHU216HW,2013-07-09 09:53:00,
2013-07-09 05:59:00,75.6,15.2,29.41,North,0,0.0,0.0,1,0.00,,,0.00,WUHU216HW,2013-07-09 09:59:00,
2013-07-09 06:04:00,75.8,15.4,29.41,North,0,0.0,0.0,1,0.00,,,0.00,WUHU216HW,2013-07-09 10:04:00,
2013-07-09 06:09:00,75.8,15.4,29.41,North,0,0.0,0.0,1,0.00,,,0.00,WUHU216HW,2013-07-09 10:09:00,
2013-07-09 06:14:00,75.6,15.2,29.41,North,0,0.0,0.0,1,0.00,,,0.00,WUHU216HW,2013-07-09 10:14:00,
2013-07-09 06:19:00,75.6,15.2,29.41,North,0,0.0,0.0,1,0.00,,,0.00,WUHU216HW,2013-07-09 10:19:00,
2013-07-09 06:24:00,75.6,15.2,29.41,North,0,0.0,0.0,1,0.00,,,0.00,WUHU216HW,2013-07-09 10:24:00,
2013-07-09 06:29:00,75.6,15.2,29.41,North,0,0.0,0.0,1,0.00,,,0.00,WUHU216HW,2013-07-09 10:29:00,
2013-07-09 06:34:00,75.4,15.1,29.41,North,0,0.0,0.0,1,0.00,,,0.00,WUHU216HW,2013-07-09 10:34:00,
2013-07-09 06:39:00,75.6,15.2,29.41,North,0,0.0,0.0,1,0.00,,,0.00,WUHU216HW,2013-07-09 10:39:00,
2013-07-09 06:44:00,75.6,15.2,29.41,North,0,0.0,0.0,1,0.00,,,0.00,WUHU216HW,2013-07-09 10:44:00,
2013-07-09 06:49:00,75.6,15.2,29.41,North,0,0.0,0.0,1,0.00,,,0.00,WUHU216HW,2013-07-09 10:49:00,
2013-07-09 06:54:00,75.8,15.4,29.41,North,0,0.0,0.0,1,0.00,,,0.00,WUHU216HW,2013-07-09 10:54:00,
2013-07-09 06:59:00,75.8,15.4,29.41,North,0,0.0,0.0,1,0.00,,,0.00,WUHU216HW,2013-07-09 10:59:00,
2013-07-09 07:04:00,75.8,15.4,29.41,North,0,0.0,0.0,1,0.00,,,0.00,WUHU216HW,2013-07-09 11:04:00,
2013-07-09 07:09:00,76.0,15.5,29.41,North,0,0.0,0.0,1,0.00,,,0.00,WUHU216HW,2013-07-09 11:09:00,
2013-07-09 07:14:00,76.0,15.5,29.41,North,0,0.0,0.0,1,0.00,,,0.00,WUHU216HW,2013-07-09 11:14:00,
2013-07-09 07:19:00,76.0,15.5,29.41,North,0,0.0,0.0,1,0.00,,,0.00,WUHU216HW,2013-07-09 11:19:00,
2013-07-09 07:24:00,76.3,15.9,29.41,North,0,0.0,0.0,1,0.00,,,0.00,WUHU216HW,2013-07-09 11:24:00,
2013-07-09 07:29:00,76.3,15.9,29.40,North,0,0.0,0.0,1,0.00,,,0.00,WUHU216HW,2013-07-09 11:29:00,
2013-07-09 07:34:00,76.3,15.9,29.40,North,0,0.0,0.0,1,0.00,,,0.00,WUHU216HW,2013-07-09 11:34:00,
2013-07-09 07:39:00,76.7,16.1,29.40,North,0,0.0,0.0,1,0.00,,,0.00,WUHU216HW,2013-07-09 11:39:00,
2013-07-09 07:44:00,76.7,16.1,29.41,North,0,0.0,0.0,1,0.00,,,0.00,WUHU216HW,2013-07-09 11:44:00,
2013-07-09 07:49:00,76.9,16.2,29.40,North,0,0.0,0.0,1,0.00,,,0.00,WUHU216HW,2013-07-09 11:49:00,
2013-07-09 07:54:00,76.9,16.2,29.41,North,0,0.0,0.0,1,0.00,,,0.00,WUHU216HW,2013-07-09 11:54:00,
2013-07-09 07:59:00,77.0,16.4,29.41,North,0,0.0,0.0,1,0.00,,,0.00,WUHU216HW,2013-07-09 11:59:00,
2013-07-09 08:04:00,77.0,16.4,29.41,North,0,0.0,0.0,1,0.00,,,0.00,WUHU216HW,2013-07-09 12:04:00,
2013-07-09 08:09:00,77.2,16.5,29.41,North,0,0.0,0.0,1,0.00,,,0.00,WUHU216HW,2013-07-09 12:09:00,
2013-07-09 08:14:00,77.4,16.7,29.41,North,0,0.0,0.0,1,0.00,,,0.00,WUHU216HW,2013-07-09 12:14:00,
2013-07-09 08:20:00,77.8,16.9,29.41,North,0,0.0,0.0,1,0.00,,,0.00,WUHU216HW,2013-07-09 12:20:00,
2013-07-09 08:25:00,77.9,17.0,29.41,North,0,0.0,0.0,1,0.00,,,0.00,WUHU216HW,2013-07-09 12:25:00,
2013-07-09 08:30:00,78.3,17.3,29.41,North,0,0.0,0.0,1,0.00,,,0.00,WUHU216HW,2013-07-09 12:30:00,
2013-07-09 08:35:00,78.8,17.6,29.41,North,0,0.0,0.0,1,0.00,,,0.00,WUHU216HW,2013-07-09 12:35:00,
2013-07-09 08:40:00,78.8,17.6,29.41,North,0,0.0,0.0,1,0.00,,,0.00,WUHU216HW,2013-07-09 12:40:00,
2013-07-09 08:45:00,79.0,17.8,29.42,North,0,0.0,0.0,1,0.00,,,0.00,WUHU216HW,2013-07-09 12:45:00,
2013-07-09 08:50:00,79.0,17.8,29.41,North,0,0.0,0.0,1,0.00,,,0.00,WUHU216HW,2013-07-09 12:50:00,
2013-07-09 08:55:00,79.4,18.1,29.42,North,0,0.0,0.0,1,0.00,,,0.00,WUHU216HW,2013-07-09 12:55:00,
2013-07-09 09:00:00,79.7,18.4,29.42,North,0,0.0,0.0,1,0.00,,,0.00,WUHU216HW,2013-07-09 13:00:00,
2013-07-09 09:05:00,79.9,18.6,29.42,North,0,0.0,0.0,1,0.00,,,0.00,WUHU216HW,2013-07-09 13:05:00,
2013-07-09 09:10:00,80.1,18.6,29.42,North,0,0.0,0.0,1,0.00,,,0.00,WUHU216HW,2013-07-09 13:10:00,
2013-07-09 09:15:00,80.6,19.1,29.42,North,0,0.0,0.0,1,0.00,,,0.00,WUHU216HW,2013-07-09 13:15:00,
2013-07-09 09:20:00,81.0,19.4,29.41,North,0,0.0,0.0,1,0.00,,,0.00,WUHU216HW,2013-07-09 13:20:00,
2013-07-09 09:25:00,81.2,19.5,29.42,North,0,0.0,0.0,1,0.00,,,0.00,WUHU216HW,2013-07-09 13:25:00,
2013-07-09 09:30:00,81.7,20.0,29.41,North,0,0.0,0.0,1,0.00,,,0.00,WUHU216HW,2013-07-09 13:30:00,
2013-07-09 09:35:00,82.4,20.5,29.42,North,0,0.0,0.0,1,0.00,,,0.00,WUHU216HW,2013-07-09 13:35:00,
2013-07-09 09:40:00,82.4,20.5,29.42,North,0,0.0,0.0,1,0.00,,,0.00,WUHU216HW,2013-07-09 13:40:00,
2013-07-09 09:45:00,82.1,20.3,29.42,North,0,0.0,0.0,1,0.00,,,0.00,WUHU216HW,2013-07-09 13:45:00,
2013-07-09 09:50:00,81.7,20.0,29.42,North,0,0.0,0.0,1,0.00,,,0.00,WUHU216HW,2013-07-09 13:50:00,
2013-07-09 09:55:00,81.4,19.6,29.42,North,0,0.0,0.0,1,0.00,,,0.00,WUHU216HW,2013-07-09 13:55:00,
2013-07-09 10:00:00,81.4,19.6,29.42,North,0,0.0,0.0,1,0.00,,,0.00,WUHU216HW,2013-07-09 14:00:00,
2013-07-09 10:05:00,81.0,19.4,29.42,North,0,0.0,0.0,1,0.00,,,0.00,WUHU216HW,2013-07-09 14:05:00,
2013-07-09 10:10:00,81.2,19.5,29.42,North,0,0.0,0.0,1,0.00,,,0.00,WUHU216HW,2013-07-09 14:10:00,
2013-07-09 10:15:00,81.2,19.5,29.42,North,0,0.0,0.0,1,0.00,,,0.00,WUHU216HW,2013-07-09 14:15:00,
2013-07-09 10:20:00,81.0,19.4,29.42,North,0,0.0,0.0,1,0.00,,,0.00,WUHU216HW,2013-07-09 14:20:00,
2013-07-09 10:25:00,81.0,19.4,29.42,North,0,0.0,0.0,1,0.00,,,0.00,WUHU216HW,2013-07-09 14:25:00,
2013-07-09 10:31:00,81.0,19.4,29.42,North,0,0.0,0.0,1,0.00,,,0.00,WUHU216HW,2013-07-09 14:31:00,
2013-07-09 10:36:00,81.2,19.5,29.41,North,0,0.0,0.0,1,0.00,,,0.00,WUHU216HW,2013-07-09 14:36:00,
2013-07-09 10:41:00,81.0,19.4,29.42,North,0,0.0,0.0,1,0.00,,,0.00,WUHU216HW,2013-07-09 14:41:00,
2013-07-09 10:46:00,80.8,19.3,29.42,North,0,0.0,0.0,1,0.00,,,0.00,WUHU216HW,2013-07-09 14:46:00,
2013-07-09 10:51:00,80.3,18.8,29.42,North,0,0.0,0.0,1,0.00,,,0.00,WUHU216HW,2013-07-09 14:51:00,
2013-07-09 10:56:00,80.1,18.6,29.42,North,0,0.0,0.0,1,0.00,,,0.00,WUHU216HW,2013-07-09 14:56:00,
2013-07-09 11:01:00,80.1,18.6,29.42,North,0,0.0,0.0,1,0.00,,,0.00,WUHU216HW,2013-07-09 15:01:00,
2013-07-09 11:06:00,80.3,18.8,29.41,North,0,0.0,0.0,1,0.00,,,0.00,WUHU216HW,2013-07-09 15:06:00,
2013-07-09 11:11:00,80.5,18.9,29.41,North,0,0.0,0.0,1,0.00,,,0.00,WUHU216HW,2013-07-09 15:11:00,
2013-07-09 11:16:00,80.3,18.8,29.41,North,0,0.0,0.0,1,0.00,,,0.00,WUHU216HW,2013-07-09 15:16:00,
2013-07-09 11:21:00,80.1,18.6,29.42,North,0,0.0,0.0,1,0.00,,,0.00,WUHU216HW,2013-07-09 15:21:00,
2013-07-09 11:26:00,79.9,18.6,29.42,North,0,0.0,0.0,1,0.00,,,0.00,WUHU216HW,2013-07-09 15:26:00,
2013-07-09 11:31:00,80.1,18.6,29.42,North,0,0.0,0.0,1,0.00,,,0.00,WUHU216HW,2013-07-09 15:31:00,
2013-07-09 11:36:00,80.3,18.8,29.41,North,0,0.0,0.0,1,0.00,,,0.00,WUHU216HW,2013-07-09 15:36:00,
2013-07-09 11:41:00,80.5,18.9,29.41,North,0,0.0,0.0,1,0.00,,,0.00,WUHU216HW,2013-07-09 15:41:00,
2013-07-09 11:46:00,80.5,18.9,29.41,North,0,0.0,0.0,1,0.00,,,0.00,WUHU216HW,2013-07-09 15:46:00,
2013-07-09 11:51:00,80.5,18.9,29.41,North,0,0.0,0.0,1,0.00,,,0.00,WUHU216HW,2013-07-09 15:51:00,
2013-07-09 11:56:00,80.8,19.3,29.41,North,0,0.0,0.0,1,0.00,,,0.00,WUHU216HW,2013-07-09 15:56:00,
2013-07-09 12:01:00,81.2,19.5,29.41,North,0,0.0,0.0,1,0.00,,,0.00,WUHU216HW,2013-07-09 16:01:00,
2013-07-09 12:06:00,81.4,19.6,29.41,North,0,0.0,0.0,1,0.00,,,0.00,WUHU216HW,2013-07-09 16:06:00,
2013-07-09 12:12:00,82.1,20.3,29.41,North,0,0.0,0.0,1,0.00,,,0.00,WUHU216HW,2013-07-09 16:12:00,
2013-07-09 12:17:00,82.4,20.5,29.41,North,0,0.0,0.0,1,0.00,,,0.00,WUHU216HW,2013-07-09 16:17:00,
2013-07-09 12:22:00,82.8,20.8,29.41,North,0,0.0,0.0,1,0.00,,,0.00,WUHU216HW,2013-07-09 16:22:00,
2013-07-09 12:27:00,83.3,21.2,29.41,North,0,0.0,0.0,1,0.00,,,0.00,WUHU216HW,2013-07-09 16:27:00,
2013-07-09 12:32:00,84.2,21.8,29.40,North,0,0.0,0.0,1,0.00,,,0.00,WUHU216HW,2013-07-09 16:32:00,
2013-07-09 12:37:00,85.1,22.5,29.41,North,0,0.0,0.0,1,0.00,,,0.00,WUHU216HW,2013-07-09 16:37:00,
2013-07-09 12:42:00,86.0,23.2,29.41,North,0,0.0,0.0,1,0.00,,,0.00,WUHU216HW,2013-07-09 16:42:00,
2013-07-09 12:47:00,86.4,23.5,29.41,North,0,0.0,0.0,1,0.00,,,0.00,WUHU216HW,2013-07-09 16:47:00,
2013-07-09 12:52:00,86.6,23.7,29.41,North,0,0.0,0.0,1,0.00,,,0.00,WUHU216HW,2013-07-09 16:52:00,
2013-07-09 12:57:00,86.4,23.5,29.42,North,0,0.0,0.0,1,0.00,,,0.00,WUHU216HW,2013-07-09 16:57:00,
2013-07-09 13:02:00,86.4,23.5,29.42,North,0,0.0,0.0,1,0.00,,,0.00,WUHU216HW,2013-07-09 17:02:00,
2013-07-09 13:07:00,86.0,23.2,29.42,North,0,0.0,0.0,1,0.00,,,0.00,WUHU216HW,2013-07-09 17:07:00,
2013-07-09 13:12:00,85.5,22.8,29.42,North,0,0.0,0.0,1,0.00,,,0.00,WUHU216HW,2013-07-09 17:12:00,
2013-07-09 13:17:00,85.1,22.5,29.42,North,0,0.0,0.0,1,0.00,,,0.00,WUHU216HW,2013-07-09 17:17:00,
2013-07-09 13:22:00,84.8,22.2,29.42,North,0,0.0,0.0,1,0.00,,,0.00,WUHU216HW,2013-07-09 17:22:00,
2013-07-09 13:27:00,84.4,22.0,29.41,North,0,0.0,0.0,1,0.00,,,0.00,WUHU216HW,2013-07-09 17:27:00,
2013-07-09 13:32:00,84.1,21.7,29.41,North,0,0.0,0.0,1,0.00,,,0.00,WUHU216HW,2013-07-09 17:32:00,
2013-07-09 13:37:00,83.9,21.5,29.40,North,0,0.0,0.0,1,0.00,,,0.00,WUHU216HW,2013-07-09 17:37:00,
2013-07-09 13:42:00,84.1,21.7,29.40,North,0,0.0,0.0,1,0.00,,,0.00,WUHU216HW,2013-07-09 17:42:00,
2013-07-09 13:47:00,84.6,22.1,29.40,North,0,0.0,0.0,1,0.00,,,0.00,WUHU216HW,2013-07-09 17:47:00,
2013-07-09 13:52:00,85.0,22.3,29.40,North,0,0.0,0.0,1,0.00,,,0.00,WUHU216HW,2013-07-09 17:52:00,
2013-07-09 13:57:00,85.5,22.8,29.40,North,0,0.0,0.0,1,0.00,,,0.00,WUHU216HW,2013-07-09 17:57:00,
2013-07-09 14:03:00,86.0,23.2,29.39,North,0,0.0,0.0,1,0.00,,,0.00,WUHU216HW,2013-07-09 18:03:00,
2013-07-09 14:08:00,86.0,23.2,29.39,North,0,0.0,0.0,1,0.00,,,0.00,WUHU216HW,2013-07-09 18:08:00,
2013-07-09 14:13:00,86.0,23.2,29.39,North,0,0.0,0.0,1,0.00,,,0.00,WUHU216HW,2013-07-09 18:13:00,
2013-07-09 14:18:00,86.4,23.5,29.39,North,0,0.0,0.0,1,0.00,,,0.00,WUHU216HW,2013-07-09 18:18:00,
2013-07-09 14:23:00,87.3,24.2,29.39,North,0,0.0,0.0,1,0.00,,,0.00,WUHU216HW,2013-07-09 18:23:00,
2013-07-09 14:28:00,87.8,24.7,29.39,North,0,0.0,0.0,1,0.00,,,0.00,WUHU216HW,2013-07-09 18:28:00,
2013-07-09 14:33:00,89.1,25.6,29.39,North,0,0.0,0.0,1,0.00,,,0.00,WUHU216HW,2013-07-09 18:33:00,
2013-07-09 14:38:00,88.9,25.4,29.39,North,0,0.0,0.0,1,0.00,,,0.00,WUHU216HW,2013-07-09 18:38:00,
2013-07-09 14:43:00,89.1,25.6,29.39,North,0,0.0,0.0,1,0.00,,,0.00,WUHU216HW,2013-07-09 18:43:00,
2013-07-09 14:48:00,88.9,25.4,29.38,North,0,0.0,0.0,1,0.00,,,0.00,WUHU216HW,2013-07-09 18:48:00,
2013-07-09 14:53:00,89.1,25.6,29.38,North,0,0.0,0.0,1,0.00,,,0.00,WUHU216HW,2013-07-09 18:53:00,
2013-07-09 14:58:00,90.4,26.5,29.38,North,0,0.0,0.0,1,0.00,,,0.00,WUHU216HW,2013-07-09 18:58:00,
2013-07-09 15:03:00,90.4,26.5,29.38,North,0,0.0,0.0,1,0.00,,,0.00,WUHU216HW,2013-07-09 19:03:00,
2013-07-09 15:08:00,90.4,26.5,29.38,North,0,0.0,0.0,1,0.00,,,0.00,WUHU216HW,2013-07-09 19:08:00,
2013-07-09 15:13:00,89.8,26.1,29.38,North,0,0.0,0.0,1,0.00,,,0.00,WUHU216HW,2013-07-09 19:13:00,
2013-07-09 15:18:00,89.6,25.9,29.38,North,0,0.0,0.0,1,0.00,,,0.00,WUHU216HW,2013-07-09 19:18:00,
2013-07-09 15:23:00,89.6,25.9,29.38,North,0,0.0,0.0,1,0.00,,,0.00,WUHU216HW,2013-07-09 19:23:00,
2013-07-09 15:28:00,89.3,25.7,29.37,North,0,0.0,0.0,1,0.00,,,0.00,WUHU216HW,2013-07-09 19:28:00,
2013-07-09 15:33:00,88.9,25.4,29.37,North,0,0.0,0.0,1,0.00,,,0.00,WUHU216HW,2013-07-09 19:33:00,
2013-07-09 15:38:00,89.6,25.9,29.37,North,0,0.0,0.0,1,0.00,,,0.00,WUHU216HW,2013-07-09 19:38:00,
2013-07-09 15:43:00,91.3,27.2,29.37,North,0,0.0,0.0,1,0.00,,,0.00,WUHU216HW,2013-07-09 19:43:00,
2013-07-09 15:48:00,90.9,26.9,29.37,North,0,0.0,0.0,1,0.00,,,0.00,WUHU216HW,2013-07-09 19:48:00,
2013-07-09 15:53:00,91.1,27.1,29.37,North,0,0.0,0.0,1,0.00,,,0.00,WUHU216HW,2013-07-09 19:53:00,
2013-07-09 15:58:00,90.9,26.9,29.37,North,0,0.0,0.0,1,0.00,,,0.00,WUHU216HW,2013-07-09 19:58:00,
2013-07-09 16:03:00,91.4,27.4,29.37,North,0,0.0,0.0,1,0.00,,,0.00,WUHU216HW,2013-07-09 20:03:00,
2013-07-09 16:08:00,91.1,27.1,29.36,North,0,0.0,0.0,1,0.00,,,0.00,WUHU216HW,2013-07-09 20:08:00,
2013-07-09 16:13:00,90.7,26.8,29.36,North,0,0.0,0.0,1,0.00,,,0.00,WUHU216HW,2013-07-09 20:13:00,
2013-07-09 16:18:00,90.9,26.9,29.37,North,0,0.0,0.0,1,0.00,,,0.00,WUHU216HW,2013-07-09 20:18:00,
2013-07-09 16:24:00,91.3,27.2,29.36,North,0,0.0,0.0,1,0.00,,,0.00,WUHU216HW,2013-07-09 20:24:00,
2013-07-09 16:29:00,91.1,27.1,29.36,North,0,0.0,0.0,1,0.00,,,0.00,WUHU216HW,2013-07-09 20:29:00,
2013-07-09 16:34:00,91.8,27.6,29.36,North,0,0.0,0.0,1,0.00,,,0.00,WUHU216HW,2013-07-09 20:34:00,
2013-07-09 16:39:00,92.2,27.9,29.36,North,0,0.0,0.0,1,0.00,,,0.00,WUHU216HW,2013-07-09 20:39:00,
2013-07-09 16:44:00,93.1,28.5,29.36,North,0,0.0,0.0,1,0.00,,,0.00,WUHU216HW,2013-07-09 20:44:00,
2013-07-09 16:49:00,93.2,28.6,29.35,North,0,0.0,0.0,1,0.00,,,0.00,WUHU216HW,2013-07-09 20:49:00,
2013-07-09 16:54:00,92.9,28.4,29.35,North,0,0.0,0.0,1,0.00,,,0.00,WUHU216HW,2013-07-09 20:54:00,
2013-07-09 16:59:00,92.9,28.4,29.36,North,0,0.0,0.0,1,0.00,,,0.00,WUHU216HW,2013-07-09 20:59:00,
2013-07-09 17:04:00,92.7,28.3,29.36,North,0,0.0,0.0,1,0.00,,,0.00,WUHU216HW,2013-07-09 21:04:00,
2013-07-09 17:09:00,93.2,28.6,29.36,North,0,0.0,0.0,1,0.00,,,0.00,WUHU216HW,2013-07-09 21:09:00,
2013-07-09 17:14:00,93.4,28.8,29.36,North,0,0.0,0.0,1,0.00,,,0.00,WUHU216HW,2013-07-09 21:14:00,
2013-07-09 17:19:00,93.4,28.8,29.36,North,0,0.0,0.0,1,0.00,,,0.00,WUHU216HW,2013-07-09 21:19:00,
2013-07-09 17:24:00,93.2,28.6,29.35,North,0,0.0,0.0,1,0.00,,,0.00,WUHU216HW,2013-07-09 21:24:00,
2013-07-09 17:29:00,92.9,28.4,29.35,North,0,0.0,0.0,1,0.00,,,0.00,WUHU216HW,2013-07-09 21:29:00,
2013-07-09 17:34:00,92.5,28.1,29.35,North,0,0.0,0.0,1,0.00,,,0.00,WUHU216HW,2013-07-09 21:34:00,
2013-07-09 17:39:00,92.5,28.1,29.35,North,0,0.0,0.0,1,0.00,,,0.00,WUHU216HW,2013-07-09 21:39:00,
2013-07-09 17:44:00,92.2,27.9,29.35,North,0,0.0,0.0,1,0.00,,,0.00,WUHU216HW,2013-07-09 21:44:00,
2013-07-09 17:49:00,91.6,27.5,29.35,North,0,0.0,0.0,1,0.00,,,0.00,WUHU216HW,2013-07-09 21:49:00,
2013-07-09 17:54:00,91.6,27.5,29.34,North,0,0.0,0.0,1,0.00,,,0.00,WUHU216HW,2013-07-09 21:54:00,
2013-07-09 17:59:00,91.8,27.6,29.34,North,0,0.0,0.0,1,0.00,,,0.00,WUHU216HW,2013-07-09 21:59:00,
2013-07-09 18:04:00,91.4,27.4,29.34,North,0,0.0,0.0,1,0.00,,,0.00,WUHU216HW,2013-07-09 22:04:00,
2013-07-09 18:09:00,90.4,26.5,29.34,North,0,0.0,0.0,1,0.00,,,0.00,WUHU216HW,2013-07-09 22:09:00,
2013-07-09 18:14:00,89.6,25.9,29.34,North,0,0.0,0.0,1,0.00,,,0.00,WUHU216HW,2013-07-09 22:14:00,
2013-07-09 18:19:00,90.0,26.2,29.34,North,0,0.0,0.0,1,0.00,,,0.00,WUHU216HW,2013-07-09 22:19:00,
2013-07-09 18:24:00,91.1,27.1,29.34,North,0,0.0,0.0,1,0.00,,,0.00,WUHU216HW,2013-07-09 22:24:00,
2013-07-09 18:29:00,91.8,27.6,29.34,North,0,0.0,0.0,1,0.00,,,0.00,WUHU216HW,2013-07-09 22:29:00,
2013-07-09 18:34:00,91.3,27.2,29.33,North,0,0.0,0.0,1,0.00,,,0.00,WUHU216HW,2013-07-09 22:34:00,
2013-07-09 18:39:00,90.4,26.5,29.34,North,0,0.0,0.0,1,0.00,,,0.00,WUHU216HW,2013-07-09 22:39:00,
2013-07-09 18:44:00,89.8,26.1,29.34,North,0,0.0,0.0,1,0.00,,,0.00,WUHU216HW,2013-07-09 22:44:00,
2013-07-09 18:49:00,89.5,25.8,29.33,North,0,0.0,0.0,1,0.00,,,0.00,WUHU216HW,2013-07-09 22:49:00,
2013-07-09 18:54:00,88.7,25.3,29.33,North,0,0.0,0.0,1,0.00,,,0.00,WUHU216HW,2013-07-09 22:54:00,
2013-07-09 18:59:00,88.2,24.9,29.33,North,0,0.0,0.0,1,0.00,,,0.00,WUHU216HW,2013-07-09 22:59:00,
2013-07-09 19:04:00,87.7,24.5,29.33,North,0,0.0,0.0,1,0.00,,,0.00,WUHU216HW,2013-07-09 23:04:00,
2013-07-09 19:09:00,87.7,24.5,29.33,North,0,0.0,0.0,1,0.00,,,0.00,WUHU216HW,2013-07-09 23:09:00,
2013-07-09 19:14:00,87.3,24.2,29.33,North,0,0.0,0.0,1,0.00,,,0.00,WUHU216HW,2013-07-09 23:14:00,
2013-07-09 19:19:00,87.1,24.1,29.33,North,0,0.0,0.0,1,0.00,,,0.00,WUHU216HW,2013-07-09 23:19:00,
2013-07-09 19:25:00,86.8,23.8,29.33,North,0,0.0,0.0,1,0.00,,,0.00,WUHU216HW,2013-07-09 23:25:00,
2013-07-09 19:30:00,86.6,23.7,29.34,North,0,0.0,0.0,1,0.00,,,0.00,WUHU216HW,2013-07-09 23:30:00,
2013-07-09 19:35:00,86.4,23.5,29.33,North,0,0.0,0.0,1,0.00,,,0.00,WUHU216HW,2013-07-09 23:35:00,
2013-07-09 19:40:00,86.2,23.4,29.33,North,0,0.0,0.0,1,0.00,,,0.00,WUHU216HW,2013-07-09 23:40:00,
2013-07-09 19:45:00,86.0,23.2,29.34,North,0,0.0,0.0,1,0.00,,,0.00,WUHU216HW,2013-07-09 23:45:00,
2013-07-09 19:50:00,85.9,23.0,29.33,North,0,0.0,0.0,1,0.00,,,0.00,WUHU216HW,2013-07-09 23:50:00,
2013-07-09 19:55:00,85.7,23.0,29.33,North,0,0.0,0.0,1,0.00,,,0.00,WUHU216HW,2013-07-09 23:55:00,
2013-07-09 20:00:00,85.3,22.7,29.33,North,0,0.0,0.0,1,0.00,,,0.00,WUHU216HW,2013-07-10 00:00:00,
2013-07-09 20:05:00,85.1,22.5,29.33,North,0,0.0,0.0,1,0.00,,,0.00,WUHU216HW,2013-07-10 00:05:00,
2013-07-09 20:10:00,85.0,22.3,29.32,North,0,0.0,0.0,1,0.00,,,0.00,WUHU216HW,2013-07-10 00:10:00,
2013-07-09 20:15:00,84.6,22.1,29.32,North,0,0.0,0.0,1,0.00,,,0.00,WUHU216HW,2013-07-10 00:15:00,
2013-07-09 20:20:00,84.4,22.0,29.32,North,0,0.0,0.0,1,0.00,,,0.00,WUHU216HW,2013-07-10 00:20:00,
2013-07-09 20:25:00,84.2,21.8,29.33,North,0,0.0,0.0,1,0.00,,,0.00,WUHU216HW,2013-07-10 00:25:00,
2013-07-09 20:29:00,84.2,21.8,29.32,North,0,0.0,0.0,1,0.00,,,0.00,WUHU216HW,2013-07-10 00:29:00,
2013-07-09 20:34:00,83.9,21.5,29.32,North,0,0.0,0.0,1,0.00,,,0.00,WUHU216HW,2013-07-10 00:34:00,
2013-07-09 20:39:00,83.9,21.5,29.33,North,0,0.0,0.0,1,0.00,,,0.00,WUHU216HW,2013-07-10 00:39:00,
2013-07-09 20:45:00,83.9,21.5,29.33,North,0,0.0,0.0,1,0.00,,,0.00,WUHU216HW,2013-07-10 00:45:00,
2013-07-09 20:50:00,83.5,21.2,29.33,North,0,0.0,0.0,1,0.00,,,0.00,WUHU216HW,2013-07-10 00:50:00,
2013-07-09 20:55:00,83.2,21.1,29.33,North,0,0.0,0.0,1,0.00,,,0.00,WUHU216HW,2013-07-10 00:55:00,
2013-07-09 21:00:00,83.0,20.9,29.34,North,0,0.0,0.0,1,0.00,,,0.00,WUHU216HW,2013-07-10 01:00:00,
2013-07-09 21:05:00,82.8,20.8,29.33,North,0,0.0,0.0,1,0.00,,,0.00,WUHU216HW,2013-07-10 01:05:00,
2013-07-09 21:10:00,82.8,20.8,29.34,North,0,0.0,0.0,1,0.00,,,0.00,WUHU216HW,2013-07-10 01:10:00,
2013-07-09 21:15:00,82.8,20.8,29.33,North,0,0.0,0.0,1,0.00,,,0.00,WUHU216HW,2013-07-10 01:15:00,
2013-07-09 21:20:00,82.4,20.5,29.33,North,0,0.0,0.0,1,0.00,,,0.00,WUHU216HW,2013-07-10 01:20:00,
2013-07-09 21:25:00,82.3,20.3,29.33,North,0,0.0,0.0,1,0.00,,,0.00,WUHU216HW,2013-07-10 01:25:00,
2013-07-09 21:31:00,81.9,20.1,29.33,North,0,0.0,0.0,1,0.00,,,0.00,WUHU216HW,2013-07-10 01:31:00,
2013-07-09 21:36:00,81.7,20.0,29.33,North,0,0.0,0.0,1,0.00,,,0.00,WUHU216HW,2013-07-10 01:36:00,
2013-07-09 21:41:00,81.4,19.6,29.33,North,0,0.0,0.0,1,0.00,,,0.00,WUHU216HW,2013-07-10 01:41:00,
2013-07-09 21:46:00,81.0,19.4,29.34,North,0,0.0,0.0,1,0.00,,,0.00,WUHU216HW,2013-07-10 01:46:00,
2013-07-09 21:51:00,81.0,19.4,29.33,North,0,0.0,0.0,1,0.00,,,0.00,WUHU216HW,2013-07-10 01:51:00,
2013-07-09 21:56:00,80.8,19.3,29.34,North,0,0.0,0.0,1,0.00,,,0.00,WUHU216HW,2013-07-10 01:56:00,
2013-07-09 22:01:00,80.6,19.1,29.34,North,0,0.0,0.0,1,0.00,,,0.00,WUHU216HW,2013-07-10 02:01:00,
2013-07-09 22:06:00,80.6,19.1,29.34,North,0,0.0,0.0,1,0.00,,,0.00,WUHU216HW,2013-07-10 02:06:00,
2013-07-09 22:11:00,80.5,18.9,29.34,North,0,0.0,0.0,1,0.00,,,0.00,WUHU216HW,2013-07-10 02:11:00,
2013-07-09 22:16:00,80.5,18.9,29.34,North,0,0.0,0.0,1,0.00,,,0.00,WUHU216HW,2013-07-10 02:16:00,
2013-07-09 22:21:00,80.3,18.8,29.33,North,0,0.0,0.0,1,0.00,,,0.00,WUHU216HW,2013-07-10 02:21:00,
2013-07-09 22:26:00,80.3,18.8,29.34,North,0,0.0,0.0,1,0.00,,,0.00,WUHU216HW,2013-07-10 02:26:00,
2013-07-09 22:31:00,80.3,18.8,29.34,North,0,0.0,0.0,1,0.00,,,0.00,WUHU216HW,2013-07-10 02:31:00,
2013-07-09 22:36:00,80.1,18.6,29.34,North,0,0.0,0.0,1,0.00,,,0.00,WUHU216HW,2013-07-10 02:36:00,
2013-07-09 22:41:00,80.1,18.6,29.34,North,0,0.0,0.0,1,0.00,,,0.00,WUHU216HW,2013-07-10 02:41:00,
2013-07-09 22:46:00,80.1,18.6,29.34,North,0,0.0,0.0,1,0.00,,,0.00,WUHU216HW,2013-07-10 02:46:00,
2013-07-09 22:51:00,80.1,18.6,29.34,North,0,0.0,0.0,1,0.00,,,0.00,WUHU216HW,2013-07-10 02:51:00,
2013-07-09 22:56:00,79.9,18.6,29.34,North,0,0.0,0.0,1,0.00,,,0.00,WUHU216HW,2013-07-10 02:56:00,
2013-07-09 23:01:00,79.9,18.6,29.34,North,0,0.0,0.0,1,0.00,,,0.00,WUHU216HW,2013-07-10 03:01:00,
2013-07-09 23:06:00,79.9,18.6,29.34,North,0,0.0,0.0,1,0.00,,,0.00,WUHU216HW,2013-07-10 03:06:00,
2013-07-09 23:12:00,80.1,18.6,29.33,North,0,0.0,0.0,1,0.00,,,0.00,WUHU216HW,2013-07-10 03:12:00,
2013-07-09 23:17:00,79.9,18.6,29.33,North,0,0.0,0.0,1,0.00,,,0.00,WUHU216HW,2013-07-10 03:17:00,
2013-07-09 23:22:00,79.9,18.6,29.34,North,0,0.0,0.0,1,0.00,,,0.00,WUHU216HW,2013-07-10 03:22:00,
2013-07-09 23:27:00,79.9,18.6,29.34,North,0,0.0,0.0,1,0.00,,,0.00,WUHU216HW,2013-07-10 03:27:00,
2013-07-09 23:32:00,79.9,18.6,29.34,North,0,0.0,0.0,1,0.00,,,0.00,WUHU216HW,2013-07-10 03:32:00,
2013-07-09 23:37:00,79.9,18.6,29.34,North,0,0.0,0.0,1,0.00,,,0.00,WUHU216HW,2013-07-10 03:37:00,
2013-07-09 23:42:00,79.9,18.6,29.34,North,0,0.0,0.0,1,0.00,,,0.00,WUHU216HW,2013-07-10 03:42:00,
2013-07-09 23:47:00,79.9,18.6,29.34,North,0,0.0,0.0,1,0.00,,,0.00,WUHU216HW,2013-07-10 03:47:00,
2013-07-09 23:52:00,80.1,18.6,29.34,North,0,0.0,0.0,1,0.00,,,0.00,WUHU216HW,2013-07-10 03:52:00,
2013-07-09 23:57:00,79.9,18.6,29.34,North,0,0.0,0.0,1,0.00,,,0.00,WUHU216HW,2013-07-10 03:57:00,